Location: Bonningues
(50.7927°N, 2.0150°E)
Time: 09:28:05
(UTC+00:00)

Thor Agena Rocket - Pass Details

Date: 08 August 2020
Orbit: 760 x 807 km, 99.0° (Epoch: 20 September)

Event Time Altitude Azimuth Distance (km) Brightness Sun altitude
Rises 22:48:25 0° 16° (NNE) 3,238 7.6 -21.7°
Reaches altitude 10° 22:50:44 10° 19° (NNE) 2,311 6.7 -21.8°
Maximum altitude 22:55:49 74° 105° (ESE) 802 3.4 -22.1°
Enters shadow 22:56:58 53° 172° (S) 942 3.5 -22.1°
